Location: Newark
(52.1752°N, 10.4140°W)
Time: 23:53:42
(UTC+00:00)

N. Korean satellite - Pass Details

Date: 22 November 2019
Orbit: 455 x 507 km, 97.2° (Epoch: 14 December)

Event Time Altitude Azimuth Distance (km) Brightness Sun altitude
Rises 18:37:43 0° 203° (SSW) 2,579 10.7 -17.3°
Reaches altitude 10° 18:40:15 10° 222° (SW) 1,709 10.1 -17.7°
Maximum altitude 18:42:56 19° 269° (W) 1,254 9.6 -18.1°
Drops below altitude 10° 18:45:40 10° 316° (NW) 1,732 9.8 -18.5°
Sets 18:48:15 0° 335° (NNW) 2,626 10.5 -18.9°
